This demonstration page uses our WeatherBlox Daily Observations layout. Learn more.

Left ArrowRight Arrow

39.92423, -83.80882

Hourly Observations for December 1, 2021

Temp ( °F °C ) Dew Point ( °F °C ) Humidity (%) Winds ( mph kmh ) Pressure ( in mb ) Visibility ( mi km ) Precip ( " mm )
12:56 am 00:56 Clear 34 1.1 32 undefined 92 92 W 7 11 30.15 1021 10 16 N/A
1:56 am 01:56 Clear 32 undefined 31 -0.6 96 96 VRB 5 7 30.15 1021 10 16 N/A
2:56 am 02:56 Clear 26 -3.3 26 -3.3 100 100 E 5 7 30.15 1021 10 16 N/A
3:56 am 03:56 Clear 30 -1 N/A N/A SE 6 9 30.12 1020 10 16 N/A
4:56 am 04:56 Clear 28 -2.2 28 -2.2 100 100 SSE 3 6 30.13 1020 9 14 N/A
5:56 am 05:56 Clear 27 -3 N/A N/A SE 5 7 30.13 1020 9 14 N/A
6:56 am 06:56 Partly Cloudy 29 -1.7 29 -1.7 100 100 NE 8 13 30.15 1021 8 13 N/A
7:56 am 07:56 Sunny 31 -0.6 31 -0.6 100 100 E 6 9 30.15 1021 7 11 N/A
8:56 am 08:56 Mostly Cloudy 36 2.2 35 1.7 97 97 SSE 9 15 30.14 1021 10 16 N/A
9:56 am 09:56 Cloudy 37 2.8 36 2.2 96 96 SSE 8 13 30.14 1021 10 16 N/A
10:56 am 10:56 Cloudy with Light Rain 38 3.3 37 2.8 97 97 SSE 7 11 30.12 1020 10 16 N/A
11:56 am 11:56 Cloudy with Light Rain 40 4.4 40 4.4 100 100 SSE 7 11 30.07 1018 10 16 N/A
12:56 pm 12:56 Cloudy with Light Rain 41 5 N/A N/A SE 5 7 30.04 1017 6 10 N/A
1:56 pm 13:56 Cloudy with Light Rain 43 6 N/A N/A ESE 9 15 29.98 1015 9 14 N/A
2:56 pm 14:56 Cloudy 43 6 N/A N/A SE 10 17 29.95 1014 10 16 N/A
3:56 pm 15:56 Cloudy with Rain 43 6.1 43 6.1 100 100 SE 12 19 29.92 1013 8 13 N/A
4:56 pm 16:56 Cloudy with Light Rain 43 6 N/A N/A SE 9 15 29.90 1012 9 14 N/A
5:03 pm 17:03 Cloudy with Light Rain 43 6 N/A N/A SE 10 17 29.90 1012 9 14 N/A
5:56 pm 17:56 Cloudy 43 6 N/A N/A SE 7 11 29.90 1013 10 16 N/A
6:20 pm 18:20 Cloudy with Rain 43 6 N/A N/A NW 7 11 29.94 1014 5 8 N/A
6:56 pm 18:56 Cloudy 43 6 N/A N/A SSW 3 6 29.93 1014 7 11 N/A
7:56 pm 19:56 Cloudy 45 7 N/A N/A SSW 7 11 29.92 1013 8 13 N/A
8:11 pm 20:11 Cloudy 45 7 N/A N/A SW 10 17 29.91 1013 9 14 N/A
8:46 pm 20:46 Cloudy 46 8 N/A N/A WSW 15 24 29.91 1013 7 11 N/A
8:56 pm 20:56 Cloudy 46 8 N/A N/A WSW 16 26 29.91 1013 7 11 N/A
9:56 pm 21:56 Cloudy with Haze 46 8 N/A N/A WSW 16 26 29.91 1013 4 6 N/A
10:05 pm 22:05 Cloudy with Haze 46 8 N/A N/A W 18 30 29.91 1013 4 6 N/A
10:56 pm 22:56 Cloudy with Haze 46 8 N/A N/A WSW 18 30 29.89 1012 6 10 N/A
11:56 pm 23:56 Cloudy 48 9 N/A N/A WSW 15 24 29.90 1012 8 13 N/A

Powered by AerisWeather